Regional Weather Roundup
Issued by NWS Raleigh/Durham, NC

Home | Current Version | Previous Version | Text Only | Print | Product List | Glossary On
Versions: 1 2 3 4 5 6 7 8 9 10 11 12 13 14 15 16 17 18 19 20 21 22 23 24 25 26 27 28 29 30 31 32 33 34 35 36 37 38 39 40 41 42 43 44 45 46 47 48 49
000
ASUS42 KRAH 210910
RWRRAH
NORTH CAROLINA WEATHER ROUNDUP
NATIONAL WEATHER SERVICE RALEIGH NC
400 AM EST SUN DEC 21 2014

NOTE: "FAIR" INDICATES FEW OR NO CLOUDS BELOW 12,000 FEET WITH NO
SIGNIFICANT WEATHER AND/OR OBSTRUCTIONS TO VISIBILITY.

NCZ001-053-055-056-065-067-211000-
WESTERN NORTH CAROLINA

CITY           SKY/WX    TMP DP  RH WIND       PRES   REMARKS
ASHEVILLE      FOG       39  38  96 S5        30.19F VSB 1/2
JEFFERSON      CLOUDY    32  32  99 CALM      30.16S FOG
MORGANTON      CLOUDY    40  36  84 CALM      30.27S
HICKORY        CLOUDY    40  35  83 CALM      30.22F
RUTHERFORDTON  CLOUDY    40  40  99 CALM      30.24F FOG
MOUNT AIRY     CLOUDY    39  34  83 CALM      30.24F
BOONE          CLOUDY    35  35  99 CALM      30.16S
$$

NCZ021-022-025-041-071-084-088-211000-
CENTRAL NORTH CAROLINA

CITY           SKY/WX    TMP DP  RH WIND       PRES   REMARKS
CHARLOTTE      CLOUDY    42  33  70 CALM      30.25S
GREENSBORO     CLOUDY    39  35  86 CALM      30.23F FOG
WINSTON-SALEM  CLOUDY    39  33  79 CALM      30.24F
RALEIGH-DURHAM CLOUDY    38  34  85 NE3       30.27F FOG
FORT BRAGG     CLOUDY    38  36  91 N2        30.26S
FAYETTEVILLE   CLOUDY    39  36  89 NE5       30.26S
BURLINGTON     CLOUDY    37  34  89 CALM      30.25F
LAURINBURG     PTCLDY    38  35  89 N5        30.26S WCI  34
$$

NCZ011-015-027-028-043-044-047-080-103-211000-
NORTHEASTERN NORTH CAROLINA

CITY           SKY/WX    TMP DP  RH WIND       PRES   REMARKS
ROCKY MT-WILSO CLEAR     33  31  92 NE3       30.28F
GREENVILLE     CLEAR     32  30  93 CALM      30.28F
WASHINGTON     CLEAR     32  31  93 NE5       30.27F WCI  28
ELIZABETH CITY CLEAR     37  30  75 N5        30.29S WCI  33
MANTEO         CLEAR     39  34  84 N3        30.27S
CAPE HATTERAS  CLEAR     43  37  79 NE8G16    30.24F
$$

NCZ078-087-090-091-093-098-101-211000-
SOUTHEASTERN NORTH CAROLINA

CITY           SKY/WX    TMP DP  RH WIND       PRES   REMARKS
LUMBERTON      CLOUDY    39  36  89 NE3       30.25S FOG
GOLDSBORO      CLEAR     33  33  98 CALM      30.25F
KINSTON        CLEAR     33  32  97 N3        30.27F
KENANSVILLE    PTCLDY    33  33 100 CALM      30.27F FOG
NEW BERN       CLEAR     37  32  82 NE5       30.27F WCI  33
CHERRY POINT   MOCLDY    38  33  82 NE10      30.26S WCI  31
BEAUFORT       PTCLDY    40  37  89 NE8       30.24F WCI  34
JACKSONVILLE   CLEAR     35  33  92 N6        30.24F WCI  30
WILMINGTON     CLOUDY    38  35  89 N8        30.23S WCI  32
$$



USA.gov is the U.S. government's official web portal to all federal, state and local government web resources and services.